| time (UTC) | temp F | wind direction | speed MPH | gust MPH | rain 1hr in | rain 24hr in | rain mn in | humidity % | barometer mb |
| 20260508115531 | 46 | 341 | 3.0 | 6.0 | 0.00 | 0.00 | 0.00 | 68 | 1018.7 |
| 20260508115031 | 45 | 350 | 4.0 | 6.0 | 0.00 | 0.00 | 0.00 | 69 | 1018.5 |
| 20260508114529 | 45 | 5 | 2.0 | 8.0 | 0.00 | 0.00 | 0.00 | 70 | 1018.5 |
| 20260508114031 | 45 | 344 | 3.0 | 4.0 | 0.00 | 0.00 | 0.00 | 69 | 1018.5 |
| 20260508113531 | 45 | 350 | 2.0 | 4.0 | 0.00 | 0.00 | 0.00 | 70 | 1018.4 |
| 20260508113029 | 45 | 350 | 2.0 | 3.0 | 0.00 | 0.00 | 0.00 | 71 | 1018.4 |
| 20260508112527 | 44 | 350 | 0.0 | 2.0 | 0.00 | 0.00 | 0.00 | 71 | 1018.3 |
| 20260508112026 | 43 | 350 | 0.0 | 4.0 | 0.00 | 0.00 | 0.00 | 72 | 1018.2 |
| 20260508111528 | 43 | 350 | 2.0 | 4.0 | 0.00 | 0.00 | 0.00 | 72 | 1018.1 |
| 20260508111026 | 42 | 351 | 1.0 | 4.0 | 0.00 | 0.00 | 0.00 | 73 | 1018.0 |
| 20260508110531 | 42 | 351 | 1.0 | 5.0 | 0.00 | 0.00 | 0.00 | 74 | 1017.9 |
| 20260508110025 | 41 | 355 | 2.0 | 5.0 | 0.00 | 0.00 | 0.00 | 75 | 1017.9 |
| 20260508105525 | 40 | 355 | 2.0 | 4.0 | 0.00 | 0.00 | 0.00 | 77 | 1017.9 |
| 20260508105023 | 40 | 355 | 1.0 | 3.0 | 0.00 | 0.00 | 0.00 | 78 | 1017.8 |
| 20260508104522 | 40 | 355 | 1.0 | 4.0 | 0.00 | 0.00 | 0.00 | 78 | 1017.8 |
| 20260508104022 | 40 | 355 | 1.0 | 4.0 | 0.00 | 0.00 | 0.00 | 78 | 1017.6 |
| 20260508103521 | 40 | 355 | 2.0 | 5.0 | 0.00 | 0.00 | 0.00 | 79 | 1017.6 |
| 20260508103029 | 40 | 355 | 3.0 | 5.0 | 0.00 | 0.00 | 0.00 | 79 | 1017.5 |
| 20260508102519 | 40 | 355 | 2.0 | 5.0 | 0.00 | 0.00 | 0.00 | 78 | 1017.5 |
| 20260508102019 | 40 | 336 | 3.0 | 5.0 | 0.00 | 0.00 | 0.00 | 78 | 1017.4 |
| 20260508101530 | 40 | 332 | 2.0 | 4.0 | 0.00 | 0.00 | 0.00 | 77 | 1017.4 |
| 20260508101020 | 41 | 300 | 2.0 | 4.0 | 0.00 | 0.00 | 0.00 | 75 | 1017.4 |
| 20260508100514 | 41 | 298 | 1.0 | 4.0 | 0.00 | 0.00 | 0.00 | 74 | 1017.3 |
| 20260508100015 | 42 | 297 | 2.0 | 5.0 | 0.00 | 0.00 | 0.00 | 74 | 1017.0 |
| 20260508095515 | 42 | 302 | 2.0 | 5.0 | 0.00 | 0.00 | 0.00 | 74 | 1017.0 |
| 20260508095015 | 41 | 310 | 3.0 | 5.0 | 0.00 | 0.00 | 0.00 | 74 | 1017.0 |
| 20260508094512 | 42 | 323 | 2.0 | 8.0 | 0.00 | 0.00 | 0.00 | 75 | 1016.8 |
| 20260508094011 | 42 | 312 | 2.0 | 8.0 | 0.00 | 0.00 | 0.00 | 75 | 1016.9 |
| 20260508093514 | 42 | 325 | 3.0 | 8.0 | 0.00 | 0.00 | 0.00 | 75 | 1016.8 |
| 20260508093011 | 42 | 315 | 3.0 | 6.0 | 0.00 | 0.00 | 0.00 | 75 | 1016.9 |
| 20260508092509 | 42 | 317 | 2.0 | 6.0 | 0.00 | 0.00 | 0.00 | 75 | 1016.9 |
| 20260508092008 | 42 | 350 | 2.0 | 6.0 | 0.00 | 0.00 | 0.00 | 75 | 1016.7 |
| 20260508091507 | 42 | 334 | 1.0 | 8.0 | 0.00 | 0.00 | 0.00 | 75 | 1016.6 |
| 20260508091007 | 42 | 334 | 4.0 | 10.0 | 0.00 | 0.00 | 0.00 | 75 | 1016.7 |
| 20260508090506 | 43 | 360 | 4.0 | 10.0 | 0.00 | 0.00 | 0.00 | 75 | 1016.6 |
| 20260508090007 | 43 | 350 | 3.0 | 8.0 | 0.00 | 0.00 | 0.00 | 75 | 1016.6 |
| 20260508085504 | 43 | 336 | 4.0 | 11.0 | 0.00 | 0.00 | 0.00 | 74 | 1016.5 |
| 20260508085002 | 43 | 341 | 5.0 | 12.0 | 0.00 | 0.00 | 0.00 | 74 | 1016.5 |
| 20260508084502 | 44 | 330 | 5.0 | 12.0 | 0.00 | 0.00 | 0.00 | 74 | 1016.4 |
| 20260508084001 | 44 | 333 | 6.0 | 13.0 | 0.00 | 0.00 | 0.00 | 74 | 1016.4 |
| 20260508083603 | 44 | 313 | 6.0 | 14.0 | 0.00 | 0.00 | 0.00 | 73 | 1016.2 |
| 20260508083125 | 44 | 317 | 6.0 | 15.0 | 0.00 | 0.00 | 0.00 | 73 | 1016.2 |
| 20260508082557 | 44 | 317 | 8.0 | 15.0 | 0.00 | 0.00 | 0.00 | 72 | 1016.2 |
| 20260508082057 | 45 | 338 | 9.0 | 19.0 | 0.00 | 0.00 | 0.00 | 72 | 1016.0 |
| 20260508081556 | 45 | 306 | 9.0 | 19.0 | 0.00 | 0.00 | 0.00 | 71 | 1015.8 |
| 20260508081054 | 45 | 317 | 10.0 | 18.0 | 0.00 | 0.00 | 0.00 | 70 | 1015.7 |
| 20260508080553 | 45 | 333 | 9.0 | 20.0 | 0.00 | 0.00 | 0.00 | 70 | 1015.6 |
| 20260508080058 | 45 | 329 | 12.0 | 20.0 | 0.00 | 0.00 | 0.00 | 69 | 1015.5 |
| 20260508075553 | 46 | 330 | 11.0 | 19.0 | 0.00 | 0.01 | 0.00 | 69 | 1015.3 |
| 20260508075050 | 46 | 327 | 12.0 | 21.0 | 0.00 | 0.01 | 0.00 | 69 | 1015.2 |
| 20260508074552 | 46 | 360 | 12.0 | 21.0 | 0.00 | 0.01 | 0.00 | 69 | 1015.2 |
| 20260508074053 | 46 | 9 | 10.0 | 16.0 | 0.00 | 0.01 | 0.00 | 70 | 1015.3 |
| 20260508073548 | 46 | 336 | 9.0 | 15.0 | 0.00 | 0.01 | 0.00 | 70 | 1015.3 |
| 20260508073048 | 46 | 355 | 4.0 | 13.0 | 0.00 | 0.01 | 0.00 | 71 | 1015.2 |
| 20260508072546 | 46 | 340 | 5.0 | 12.0 | 0.00 | 0.01 | 0.00 | 71 | 1015.5 |
| 20260508072051 | 46 | 336 | 5.0 | 18.0 | 0.00 | 0.01 | 0.00 | 72 | 1015.6 |
| 20260508071546 | 46 | 290 | 7.0 | 18.0 | 0.00 | 0.01 | 0.00 | 72 | 1015.5 |
| 20260508071045 | 46 | 305 | 7.0 | 15.0 | 0.00 | 0.01 | 0.00 | 73 | 1015.7 |
| 20260508070544 | 46 | 337 | 7.0 | 19.0 | 0.00 | 0.01 | 0.00 | 72 | 1015.5 |
| 20260508070044 | 46 | 18 | 8.0 | 19.0 | 0.00 | 0.01 | 0.00 | 73 | 1015.5 |
| 20260508065543 | 46 | 318 | 8.0 | 14.0 | 0.00 | 0.02 | 0.00 | 74 | 1015.4 |
| 20260508065041 | 46 | 327 | 7.0 | 14.0 | 0.00 | 0.02 | 0.00 | 74 | 1015.4 |
| 20260508064550 | 46 | 338 | 7.0 | 15.0 | 0.00 | 0.02 | 0.00 | 75 | 1015.5 |
| 20260508064040 | 46 | 336 | 7.0 | 16.0 | 0.00 | 0.02 | 0.00 | 75 | 1015.6 |
| 20260508063541 | 46 | 304 | 9.0 | 16.0 | 0.00 | 0.02 | 0.00 | 75 | 1015.5 |
| 20260508063039 | 46 | 301 | 8.0 | 14.0 | 0.00 | 0.02 | 0.00 | 75 | 1015.4 |
| 20260508062539 | 46 | 300 | 6.0 | 15.0 | 0.00 | 0.02 | 0.00 | 76 | 1015.4 |
| 20260508062038 | 46 | 324 | 9.0 | 15.0 | 0.00 | 0.02 | 0.00 | 76 | 1015.4 |
| 20260508061539 | 46 | 327 | 4.0 | 14.0 | 0.00 | 0.02 | 0.00 | 76 | 1015.4 |
| 20260508055534 | 46 | 344 | 6.0 | 21.0 | 0.00 | 0.02 | 0.00 | 78 | 1015.5 |
| 20260508055032 | 46 | 295 | 8.0 | 14.0 | 0.00 | 0.02 | 0.00 | 78 | 1015.6 |
| 20260508054534 | 46 | 330 | 7.0 | 13.0 | 0.00 | 0.02 | 0.00 | 79 | 1015.6 |
| 20260508054033 | 46 | 321 | 5.0 | 10.0 | 0.00 | 0.02 | 0.00 | 79 | 1015.7 |
| 20260508053530 | 46 | 338 | 4.0 | 11.0 | 0.00 | 0.02 | 0.00 | 78 | 1015.7 |
| 20260508053033 | 47 | 339 | 2.0 | 16.0 | 0.00 | 0.02 | 0.00 | 78 | 1015.5 |
| 20260508052529 | 47 | 291 | 7.0 | 13.0 | 0.00 | 0.02 | 0.00 | 79 | 1015.3 |
| 20260508052029 | 47 | 324 | 6.0 | 19.0 | 0.00 | 0.02 | 0.00 | 79 | 1015.3 |
| 20260508051527 | 47 | 317 | 9.0 | 17.0 | 0.00 | 0.02 | 0.00 | 80 | 1015.2 |
| 20260508051025 | 47 | 310 | 5.0 | 18.0 | 0.00 | 0.02 | 0.00 | 80 | 1015.2 |
| 20260508050525 | 47 | 284 | 9.0 | 18.0 | 0.00 | 0.02 | 0.00 | 81 | 1015.0 |
| 20260508050124 | 47 | 345 | 10.0 | 20.0 | 0.00 | 0.02 | 0.00 | 81 | 1014.9 |
| 20260508045522 | 47 | 317 | 9.0 | 20.0 | 0.00 | 0.02 | 0.00 | 81 | 1014.9 |
| 20260508045021 | 47 | 343 | 12.0 | 19.0 | 0.00 | 0.02 | 0.00 | 80 | 1014.9 |
| 20260508044521 | 47 | 333 | 10.0 | 17.0 | 0.00 | 0.02 | 0.00 | 80 | 1015.0 |
| 20260508044021 | 47 | 337 | 8.0 | 17.0 | 0.00 | 0.02 | 0.00 | 80 | 1014.9 |
| 20260508043519 | 47 | 338 | 11.0 | 18.0 | 0.00 | 0.02 | 0.00 | 80 | 1014.9 |
| 20260508043018 | 48 | 333 | 11.0 | 20.0 | 0.00 | 0.02 | 0.00 | 79 | 1014.8 |
| 20260508042517 | 48 | 321 | 10.0 | 21.0 | 0.00 | 0.02 | 0.00 | 79 | 1014.8 |
| 20260508042016 | 48 | 338 | 10.0 | 21.0 | 0.00 | 0.02 | 0.00 | 79 | 1014.7 |
| 20260508041515 | 48 | 294 | 10.0 | 17.0 | 0.00 | 0.02 | 0.00 | 79 | 1014.7 |
| 20260508041014 | 48 | 330 | 9.0 | 18.0 | 0.00 | 0.02 | 0.00 | 80 | 1014.7 |
| 20260508040513 | 48 | 333 | 9.0 | 16.0 | 0.00 | 0.02 | 0.00 | 80 | 1014.7 |
| 20260508040018 | 48 | 328 | 8.0 | 16.0 | 0.00 | 0.02 | 0.02 | 80 | 1014.7 |
| 20260508035510 | 48 | 307 | 9.0 | 16.0 | 0.00 | 0.02 | 0.02 | 80 | 1014.8 |
| 20260508035011 | 48 | 312 | 10.0 | 15.0 | 0.00 | 0.02 | 0.02 | 80 | 1014.8 |
| 20260508034508 | 48 | 342 | 9.0 | 17.0 | 0.00 | 0.02 | 0.02 | 80 | 1014.7 |
| 20260508034010 | 48 | 289 | 9.0 | 17.0 | 0.00 | 0.02 | 0.02 | 79 | 1014.7 |
| 20260508033507 | 48 | 333 | 9.0 | 18.0 | 0.00 | 0.02 | 0.02 | 79 | 1014.7 |
| 20260508033005 | 48 | 323 | 9.0 | 18.0 | 0.00 | 0.02 | 0.02 | 79 | 1014.6 |
| 20260508032505 | 48 | 335 | 7.0 | 16.0 | 0.00 | 0.02 | 0.02 | 78 | 1014.6 |
| 20260508032004 | 48 | 360 | 9.0 | 15.0 | 0.00 | 0.02 | 0.02 | 78 | 1014.6 |
| 20260508031504 | 48 | 337 | 8.0 | 15.0 | 0.00 | 0.02 | 0.02 | 78 | 1014.5 |
| 20260508031003 | 48 | 318 | 7.0 | 14.0 | 0.00 | 0.02 | 0.02 | 78 | 1014.5 |
| 20260508030503 | 48 | 355 | 9.0 | 15.0 | 0.00 | 0.02 | 0.02 | 78 | 1014.5 |
| 20260508030002 | 49 | 341 | 7.0 | 15.0 | 0.00 | 0.04 | 0.02 | 78 | 1014.3 |
| 20260508025602 | 49 | 308 | 10.0 | 15.0 | 0.00 | 0.04 | 0.02 | 78 | 1014.4 |
| 20260508025100 | 49 | 334 | 9.0 | 15.0 | 0.00 | 0.04 | 0.02 | 77 | 1014.3 |
| 20260508024559 | 49 | 327 | 9.0 | 17.0 | 0.00 | 0.04 | 0.02 | 77 | 1014.3 |
| 20260508024058 | 49 | 336 | 10.0 | 17.0 | 0.00 | 0.04 | 0.02 | 77 | 1014.3 |
| 20260508023557 | 49 | 320 | 9.0 | 16.0 | 0.00 | 0.04 | 0.02 | 76 | 1014.2 |
| 20260508023056 | 49 | 306 | 7.0 | 17.0 | 0.00 | 0.04 | 0.02 | 76 | 1014.1 |
| 20260508022555 | 49 | 350 | 8.0 | 17.0 | 0.00 | 0.04 | 0.02 | 76 | 1014.0 |
| 20260508022054 | 49 | 326 | 7.0 | 16.0 | 0.00 | 0.04 | 0.02 | 76 | 1013.9 |
| 20260508021554 | 49 | 315 | 8.0 | 15.0 | 0.00 | 0.04 | 0.02 | 75 | 1013.9 |
| 20260508021051 | 49 | 5 | 9.0 | 16.0 | 0.00 | 0.04 | 0.02 | 75 | 1013.7 |
| 20260508020552 | 49 | 288 | 8.0 | 16.0 | 0.00 | 0.04 | 0.02 | 75 | 1013.6 |
| 20260508020052 | 49 | 327 | 10.0 | 17.0 | 0.00 | 0.04 | 0.02 | 75 | 1013.5 |
| 20260508015549 | 49 | 332 | 10.0 | 17.0 | 0.00 | 0.04 | 0.02 | 75 | 1013.4 |
| 20260508015048 | 49 | 331 | 10.0 | 17.0 | 0.00 | 0.04 | 0.02 | 75 | 1013.4 |
| 20260508014553 | 49 | 14 | 8.0 | 17.0 | 0.00 | 0.04 | 0.02 | 76 | 1013.2 |
| 20260508014050 | 49 | 288 | 9.0 | 20.0 | 0.00 | 0.04 | 0.02 | 76 | 1013.2 |
| 20260508013546 | 49 | 343 | 9.0 | 20.0 | 0.00 | 0.04 | 0.02 | 77 | 1013.0 |
| 20260508013048 | 49 | 347 | 10.0 | 18.0 | 0.00 | 0.04 | 0.02 | 77 | 1012.9 |
| 20260508012547 | 49 | 38 | 5.0 | 14.0 | 0.00 | 0.04 | 0.02 | 78 | 1012.8 |
| 20260508012046 | 49 | 306 | 7.0 | 14.0 | 0.00 | 0.04 | 0.02 | 78 | 1012.7 |
| 20260508011547 | 49 | 320 | 8.0 | 17.0 | 0.00 | 0.04 | 0.02 | 77 | 1012.5 |
| 20260508011045 | 49 | 346 | 8.0 | 17.0 | 0.00 | 0.04 | 0.02 | 77 | 1012.4 |
| 20260508010547 | 49 | 286 | 8.0 | 17.0 | 0.00 | 0.04 | 0.02 | 77 | 1012.1 |
| 20260508010044 | 49 | 282 | 9.0 | 17.0 | 0.00 | 0.04 | 0.02 | 76 | 1012.2 |
| 20260508005543 | 50 | 265 | 7.0 | 17.0 | 0.00 | 0.04 | 0.02 | 75 | 1012.1 |
| 20260508005040 | 50 | 328 | 6.0 | 14.0 | 0.00 | 0.04 | 0.02 | 75 | 1012.1 |
| 20260508004539 | 50 | 295 | 7.0 | 16.0 | 0.00 | 0.04 | 0.02 | 74 | 1012.1 |
| 20260508004040 | 50 | 304 | 10.0 | 16.0 | 0.00 | 0.04 | 0.02 | 74 | 1012.1 |
| 20260508003539 | 50 | 329 | 4.0 | 15.0 | 0.00 | 0.04 | 0.02 | 74 | 1012.2 |
| 20260508003055 | 50 | 323 | 5.0 | 12.0 | 0.00 | 0.04 | 0.02 | 75 | 1012.2 |
| 20260508002538 | 50 | 274 | 6.0 | 12.0 | 0.00 | 0.04 | 0.02 | 74 | 1012.2 |
| 20260508002036 | 50 | 291 | 7.0 | 13.0 | 0.00 | 0.04 | 0.02 | 74 | 1012.2 |
| 20260508001536 | 50 | 318 | 8.0 | 14.0 | 0.00 | 0.04 | 0.02 | 74 | 1012.3 |
| 20260508001036 | 50 | 281 | 8.0 | 14.0 | 0.00 | 0.04 | 0.02 | 75 | 1012.1 |
| 20260508000536 | 50 | 281 | 5.0 | 13.0 | 0.00 | 0.04 | 0.02 | 75 | 1012.3 |
| 20260508000039 | 51 | 297 | 7.0 | 13.0 | 0.00 | 0.04 | 0.02 | 74 | 1012.1 |
| 20260507235537 | 51 | 317 | 4.0 | 13.0 | 0.00 | 0.04 | 0.02 | 74 | 1012.1 |
| 20260507235032 | 51 | 331 | 6.0 | 18.0 | 0.00 | 0.04 | 0.02 | 74 | 1012.2 |
| 20260507234531 | 51 | 276 | 9.0 | 18.0 | 0.00 | 0.04 | 0.02 | 73 | 1012.2 |
| 20260507234030 | 52 | 323 | 5.0 | 15.0 | 0.00 | 0.04 | 0.02 | 75 | 1012.2 |
| 20260507233530 | 52 | 329 | 7.0 | 18.0 | 0.00 | 0.04 | 0.02 | 75 | 1012.2 |
| 20260507233035 | 52 | 350 | 10.0 | 18.0 | 0.00 | 0.04 | 0.02 | 74 | 1012.1 |
| 20260507232529 | 52 | 323 | 9.0 | 20.0 | 0.00 | 0.04 | 0.02 | 74 | 1012.1 |
| 20260507232028 | 52 | 292 | 12.0 | 22.0 | 0.00 | 0.04 | 0.02 | 74 | 1012.1 |
| 20260507231530 | 52 | 345 | 13.0 | 24.0 | 0.00 | 0.04 | 0.02 | 74 | 1011.9 |
| 20260507231030 | 52 | 288 | 14.0 | 24.0 | 0.00 | 0.04 | 0.02 | 73 | 1011.7 |
| 20260507230529 | 52 | 326 | 9.0 | 21.0 | 0.00 | 0.04 | 0.02 | 73 | 1011.6 |
| 20260507230028 | 53 | 294 | 9.0 | 20.0 | 0.00 | 0.04 | 0.02 | 73 | 1011.8 |
| 20260507225528 | 53 | 319 | 12.0 | 20.0 | 0.00 | 0.04 | 0.02 | 73 | 1011.7 |
| 20260507225026 | 53 | 313 | 8.0 | 25.0 | 0.00 | 0.04 | 0.02 | 74 | 1011.6 |
| 20260507224528 | 53 | 300 | 12.0 | 25.0 | 0.00 | 0.04 | 0.02 | 74 | 1011.7 |
| 20260507224024 | 53 | 281 | 12.0 | 27.0 | 0.00 | 0.04 | 0.02 | 74 | 1011.6 |
| 20260507223524 | 52 | 329 | 14.0 | 27.0 | 0.00 | 0.04 | 0.02 | 76 | 1011.6 |
| 20260507223024 | 52 | 322 | 12.0 | 23.0 | 0.00 | 0.04 | 0.02 | 78 | 1011.5 |
| 20260507222523 | 52 | 318 | 12.0 | 21.0 | 0.00 | 0.04 | 0.02 | 78 | 1011.3 |
| 20260507222022 | 53 | 318 | 8.0 | 15.0 | 0.00 | 0.04 | 0.02 | 78 | 1011.2 |
| 20260507221526 | 53 | 279 | 6.0 | 20.0 | 0.00 | 0.04 | 0.02 | 78 | 1011.1 |
| 20260507221024 | 53 | 303 | 7.0 | 19.0 | 0.00 | 0.04 | 0.02 | 77 | 1011.0 |
| 20260507220525 | 54 | 324 | 12.0 | 19.0 | 0.00 | 0.04 | 0.02 | 76 | 1011.0 |
| 20260507220021 | 54 | 274 | 11.0 | 20.0 | 0.00 | 0.04 | 0.02 | 76 | 1010.9 |
| 20260507215525 | 54 | 340 | 12.0 | 20.0 | 0.00 | 0.04 | 0.02 | 76 | 1010.8 |
| 20260507215021 | 54 | 309 | 9.0 | 15.0 | 0.00 | 0.04 | 0.02 | 77 | 1010.9 |
| 20260507214521 | 54 | 355 | 2.0 | 14.0 | 0.00 | 0.04 | 0.02 | 79 | 1010.9 |
| 20260507214021 | 53 | 322 | 4.0 | 17.0 | 0.00 | 0.04 | 0.02 | 80 | 1011.0 |
| 20260507213521 | 52 | 315 | 8.0 | 17.0 | 0.00 | 0.04 | 0.02 | 81 | 1011.1 |
| 20260507213020 | 52 | 311 | 7.0 | 20.0 | 0.00 | 0.04 | 0.02 | 82 | 1011.3 |
| 20260507212519 | 52 | 320 | 8.0 | 20.0 | 0.00 | 0.04 | 0.02 | 81 | 1011.2 |
| 20260507212018 | 53 | 321 | 8.0 | 17.0 | 0.00 | 0.04 | 0.02 | 80 | 1011.2 |
| 20260507211519 | 54 | 346 | 9.0 | 22.0 | 0.00 | 0.04 | 0.02 | 80 | 1010.9 |
| 20260507211017 | 54 | 311 | 13.0 | 24.0 | 0.00 | 0.04 | 0.02 | 79 | 1010.9 |
| 20260507210517 | 54 | 348 | 13.0 | 24.0 | 0.00 | 0.04 | 0.02 | 79 | 1010.7 |
| 20260507210016 | 54 | 337 | 12.0 | 19.0 | 0.00 | 0.04 | 0.02 | 79 | 1010.6 |
| 20260507205515 | 55 | 355 | 11.0 | 19.0 | 0.00 | 0.04 | 0.02 | 80 | 1010.3 |
| 20260507205016 | 55 | 318 | 10.0 | 21.0 | 0.00 | 0.04 | 0.02 | 79 | 1010.3 |
| 20260507204514 | 56 | 333 | 12.0 | 21.0 | 0.00 | 0.04 | 0.02 | 79 | 1010.1 |
| 20260507204015 | 57 | 324 | 9.0 | 17.0 | 0.00 | 0.04 | 0.02 | 79 | 1010.1 |
| 20260507203513 | 57 | 347 | 9.0 | 20.0 | 0.00 | 0.04 | 0.02 | 78 | 1009.9 |
| 20260507203016 | 58 | 333 | 7.0 | 20.0 | 0.00 | 0.04 | 0.02 | 78 | 1009.9 |
| 20260507202514 | 58 | 341 | 5.0 | 14.0 | 0.00 | 0.04 | 0.02 | 78 | 1010.0 |
| 20260507202013 | 58 | 302 | 7.0 | 17.0 | 0.00 | 0.04 | 0.02 | 78 | 1009.9 |
| 20260507201513 | 58 | 350 | 10.0 | 22.0 | 0.00 | 0.04 | 0.02 | 78 | 1009.7 |
| 20260507201014 | 58 | 327 | 11.0 | 20.0 | 0.00 | 0.04 | 0.02 | 78 | 1009.8 |
| 20260507200514 | 59 | 325 | 7.0 | 16.0 | 0.00 | 0.04 | 0.02 | 80 | 1009.6 |
| 20260507200013 | 58 | 15 | 7.0 | 20.0 | 0.00 | 0.04 | 0.02 | 81 | 1009.7 |
| 20260507195511 | 58 | 355 | 13.0 | 20.0 | 0.00 | 0.04 | 0.02 | 80 | 1009.7 |
| 20260507195011 | 58 | 9 | 8.0 | 16.0 | 0.00 | 0.04 | 0.02 | 81 | 1009.9 |
| 20260507194511 | 58 | 22 | 11.0 | 20.0 | 0.00 | 0.04 | 0.02 | 81 | 1010.0 |
| 20260507194010 | 58 | 355 | 13.0 | 20.0 | 0.00 | 0.04 | 0.02 | 80 | 1009.9 |
| 20260507193510 | 58 | 326 | 10.0 | 23.0 | 0.00 | 0.04 | 0.02 | 82 | 1009.9 |
| 20260507193010 | 58 | 355 | 13.0 | 23.0 | 0.00 | 0.04 | 0.02 | 82 | 1010.0 |
| 20260507192510 | 58 | 350 | 11.0 | 20.0 | 0.00 | 0.04 | 0.02 | 83 | 1010.1 |
| 20260507192014 | 58 | 339 | 11.0 | 17.0 | 0.00 | 0.04 | 0.02 | 85 | 1010.2 |
| 20260507191510 | 57 | 346 | 11.0 | 17.0 | 0.00 | 0.04 | 0.02 | 84 | 1010.3 |
| 20260507191011 | 57 | 322 | 11.0 | 18.0 | 0.00 | 0.04 | 0.02 | 84 | 1010.2 |
| 20260507190510 | 57 | 329 | 10.0 | 18.0 | 0.00 | 0.04 | 0.02 | 84 | 1010.2 |
| 20260507190010 | 57 | 315 | 11.0 | 16.0 | 0.00 | 0.04 | 0.02 | 85 | 1010.4 |
| 20260507185508 | 56 | 348 | 9.0 | 17.0 | 0.00 | 0.04 | 0.02 | 86 | 1010.5 |
| 20260507185008 | 56 | 320 | 11.0 | 17.0 | 0.00 | 0.04 | 0.02 | 86 | 1010.4 |
| 20260507184512 | 56 | 5 | 10.0 | 16.0 | 0.00 | 0.04 | 0.02 | 86 | 1010.5 |
| 20260507184012 | 56 | 350 | 10.0 | 15.0 | 0.00 | 0.04 | 0.02 | 85 | 1010.6 |
| 20260507183507 | 56 | 9 | 7.0 | 15.0 | 0.00 | 0.04 | 0.02 | 86 | 1010.5 |
| 20260507183007 | 56 | 40 | 7.0 | 12.0 | 0.00 | 0.04 | 0.02 | 87 | 1010.4 |
| 20260507182508 | 56 | 44 | 6.0 | 15.0 | 0.00 | 0.04 | 0.02 | 86 | 1010.2 |
| 20260507182007 | 56 | 18 | 8.0 | 15.0 | 0.00 | 0.04 | 0.02 | 87 | 1010.3 |
| 20260507181506 | 56 | 348 | 8.0 | 14.0 | 0.00 | 0.04 | 0.02 | 88 | 1010.3 |
| 20260507181006 | 55 | 355 | 6.0 | 13.0 | 0.00 | 0.04 | 0.02 | 89 | 1010.5 |
| 20260507180508 | 55 | 13 | 6.0 | 13.0 | 0.00 | 0.04 | 0.02 | 90 | 1010.5 |
| 20260507180011 | 55 | 336 | 7.0 | 12.0 | 0.00 | 0.04 | 0.02 | 89 | 1010.6 |
| 20260507175507 | 54 | 311 | 8.0 | 15.0 | 0.00 | 0.04 | 0.02 | 90 | 1010.7 |
| 20260507175006 | 54 | 13 | 9.0 | 15.0 | 0.00 | 0.04 | 0.02 | 90 | 1010.5 |
| 20260507174505 | 54 | 349 | 6.0 | 12.0 | 0.00 | 0.04 | 0.02 | 92 | 1010.6 |
| 20260507174004 | 53 | 355 | 7.0 | 12.0 | 0.00 | 0.04 | 0.02 | 92 | 1010.6 |
| 20260507173504 | 53 | 344 | 6.0 | 13.0 | 0.00 | 0.04 | 0.02 | 92 | 1010.5 |
| 20260507173005 | 53 | 360 | 7.0 | 13.0 | 0.00 | 0.04 | 0.02 | 93 | 1010.7 |
| 20260507172503 | 53 | 42 | 8.0 | 14.0 | 0.00 | 0.04 | 0.02 | 93 | 1010.6 |
| 20260507172002 | 53 | 5 | 10.0 | 14.0 | 0.00 | 0.04 | 0.02 | 92 | 1010.6 |
| 20260507171502 | 53 | 33 | 8.0 | 13.0 | 0.00 | 0.04 | 0.02 | 92 | 1010.6 |
| 20260507171002 | 53 | 22 | 9.0 | 14.0 | 0.00 | 0.04 | 0.02 | 92 | 1010.6 |
| 20260507170501 | 54 | 28 | 8.0 | 15.0 | 0.00 | 0.04 | 0.02 | 92 | 1010.5 |
| 20260507170001 | 54 | 19 | 8.0 | 15.0 | 0.00 | 0.04 | 0.02 | 91 | 1010.5 |
| 20260507165600 | 54 | 47 | 6.0 | 13.0 | 0.00 | 0.04 | 0.02 | 93 | 1010.6 |
| 20260507165501 | 54 | 5 | 6.0 | 13.0 | 0.00 | 0.04 | 0.02 | 93 | 1010.5 |
| 20260507165100 | 54 | 12 | 5.0 | 14.0 | 0.00 | 0.04 | 0.02 | 92 | 1010.6 |
| 20260507164603 | 54 | 38 | 7.0 | 14.0 | 0.00 | 0.04 | 0.02 | 92 | 1010.7 |
| 20260507164100 | 54 | 17 | 8.0 | 14.0 | 0.00 | 0.04 | 0.02 | 92 | 1010.6 |
| 20260507163603 | 54 | 21 | 6.0 | 14.0 | 0.00 | 0.04 | 0.02 | 92 | 1010.6 |
| 20260507163100 | 54 | 22 | 6.0 | 14.0 | 0.00 | 0.04 | 0.02 | 93 | 1010.6 |
| 20260507162559 | 54 | 5 | 9.0 | 14.0 | 0.00 | 0.04 | 0.02 | 93 | 1010.6 |
| 20260507162100 | 54 | 18 | 5.0 | 12.0 | 0.00 | 0.04 | 0.02 | 94 | 1010.5 |
| 20260507161601 | 53 | 355 | 6.0 | 14.0 | 0.00 | 0.04 | 0.02 | 94 | 1010.5 |
| 20260507161058 | 53 | 28 | 8.0 | 14.0 | 0.00 | 0.04 | 0.02 | 93 | 1010.7 |
| 20260507160558 | 53 | 20 | 9.0 | 16.0 | 0.00 | 0.04 | 0.02 | 93 | 1010.7 |
| 20260507160107 | 54 | 22 | 9.0 | 16.0 | 0.00 | 0.04 | 0.02 | 93 | 1010.7 |
| 20260507155557 | 54 | 11 | 7.0 | 12.0 | 0.00 | 0.04 | 0.02 | 93 | 1010.8 |
| 20260507155056 | 54 | 15 | 8.0 | 15.0 | 0.00 | 0.04 | 0.02 | 93 | 1010.9 |
| 20260507154556 | 54 | 17 | 10.0 | 15.0 | 0.00 | 0.04 | 0.02 | 92 | 1010.9 |
| 20260507154055 | 55 | 22 | 9.0 | 14.0 | 0.00 | 0.04 | 0.02 | 93 | 1010.7 |
| 20260507153556 | 55 | 22 | 8.0 | 13.0 | 0.00 | 0.04 | 0.02 | 94 | 1010.6 |
| 20260507153059 | 55 | 25 | 7.0 | 12.0 | 0.00 | 0.04 | 0.02 | 94 | 1010.6 |
| 20260507152558 | 54 | 25 | 7.0 | 13.0 | 0.00 | 0.04 | 0.02 | 95 | 1010.5 |
| 20260507152054 | 54 | 27 | 7.0 | 13.0 | 0.00 | 0.04 | 0.02 | 95 | 1010.7 |
| 20260507151552 | 54 | 25 | 6.0 | 13.0 | 0.00 | 0.04 | 0.02 | 95 | 1010.8 |
| 20260507151052 | 54 | 22 | 8.0 | 13.0 | 0.00 | 0.04 | 0.02 | 95 | 1010.8 |
| 20260507150553 | 54 | 17 | 6.0 | 13.0 | 0.00 | 0.04 | 0.02 | 96 | 1010.8 |
| 20260507150052 | 54 | 44 | 8.0 | 13.0 | 0.00 | 0.04 | 0.02 | 96 | 1010.7 |
| 20260507145553 | 54 | 37 | 4.0 | 12.0 | 0.00 | 0.04 | 0.02 | 97 | 1010.7 |
| 20260507145051 | 54 | 25 | 7.0 | 10.0 | 0.00 | 0.04 | 0.02 | 96 | 1010.5 |
| 20260507144550 | 54 | 23 | 7.0 | 11.0 | 0.00 | 0.04 | 0.02 | 96 | 1010.7 |
| 20260507144051 | 54 | 24 | 5.0 | 11.0 | 0.00 | 0.04 | 0.02 | 96 | 1010.6 |
| 20260507143549 | 54 | 19 | 7.0 | 11.0 | 0.00 | 0.04 | 0.02 | 96 | 1010.6 |
| 20260507143047 | 54 | 18 | 6.0 | 11.0 | 0.00 | 0.04 | 0.02 | 96 | 1010.7 |
| 20260507142546 | 54 | 46 | 4.0 | 7.0 | 0.00 | 0.04 | 0.02 | 96 | 1010.8 |
| 20260507142046 | 54 | 49 | 3.0 | 10.0 | 0.00 | 0.04 | 0.02 | 96 | 1010.8 |
| 20260507141546 | 54 | 51 | 5.0 | 11.0 | 0.00 | 0.04 | 0.02 | 96 | 1010.5 |
| 20260507141045 | 54 | 49 | 6.0 | 11.0 | 0.00 | 0.04 | 0.02 | 96 | 1010.4 |
| 20260507140545 | 54 | 41 | 4.0 | 12.0 | 0.00 | 0.04 | 0.02 | 96 | 1010.5 |
| 20260507140059 | 55 | 32 | 6.0 | 12.0 | 0.00 | 0.04 | 0.02 | 96 | 1010.5 |
| 20260507135543 | 55 | 11 | 6.0 | 11.0 | 0.00 | 0.04 | 0.02 | 96 | 1010.5 |
| 20260507135044 | 55 | 28 | 5.0 | 11.0 | 0.00 | 0.04 | 0.02 | 97 | 1010.7 |
| 20260507134643 | 55 | 23 | 4.0 | 8.0 | 0.00 | 0.04 | 0.02 | 97 | 1010.5 |
| 20260507134041 | 55 | 24 | 3.0 | 9.0 | 0.00 | 0.04 | 0.02 | 97 | 1010.6 |
| 20260507133541 | 55 | 23 | 3.0 | 9.0 | 0.00 | 0.04 | 0.02 | 97 | 1010.4 |
| 20260507133040 | 55 | 20 | 6.0 | 9.0 | 0.00 | 0.04 | 0.02 | 97 | 1010.3 |
| 20260507132540 | 55 | 22 | 4.0 | 9.0 | 0.00 | 0.04 | 0.02 | 97 | 1010.3 |
| 20260507132039 | 55 | 30 | 5.0 | 9.0 | 0.00 | 0.04 | 0.02 | 97 | 1010.4 |
| 20260507131545 | 55 | 26 | 3.0 | 8.0 | 0.00 | 0.04 | 0.02 | 98 | 1010.1 |
| 20260507131039 | 55 | 25 | 3.0 | 8.0 | 0.00 | 0.04 | 0.02 | 98 | 1010.3 |
| 20260507130538 | 55 | 29 | 3.0 | 9.0 | 0.00 | 0.04 | 0.02 | 98 | 1010.6 |
| 20260507130038 | 55 | 28 | 6.0 | 9.0 | 0.00 | 0.04 | 0.02 | 98 | 1010.8 |
| 20260507125538 | 55 | 5 | 3.0 | 8.0 | 0.00 | 0.04 | 0.02 | 98 | 1010.8 |
| 20260507125043 | 55 | 360 | 4.0 | 8.0 | 0.00 | 0.04 | 0.02 | 98 | 1010.7 |
| 20260507124538 | 55 | 308 | 4.0 | 9.0 | 0.00 | 0.04 | 0.02 | 98 | 1010.8 |
| 20260507124037 | 55 | 333 | 3.0 | 9.0 | 0.00 | 0.04 | 0.02 | 98 | 1011.1 |
| 20260507123537 | 55 | 325 | 5.0 | 9.0 | 0.00 | 0.04 | 0.02 | 98 | 1011.3 |
| 20260507123036 | 55 | 310 | 5.0 | 8.0 | 0.00 | 0.04 | 0.02 | 98 | 1011.4 |
| 20260507122534 | 55 | 304 | 4.0 | 6.0 | 0.00 | 0.04 | 0.02 | 98 | 1011.3 |
| 20260507122034 | 55 | 304 | 3.0 | 5.0 | 0.00 | 0.04 | 0.02 | 98 | 1011.1 |
| 20260507121634 | 55 | 304 | 2.0 | 4.0 | 0.00 | 0.04 | 0.02 | 98 | 1011.2 |
| 20260507121033 | 56 | 304 | 1.0 | 4.0 | 0.00 | 0.04 | 0.02 | 98 | 1011.4 |
| 20260507120533 | 56 | 304 | 2.0 | 6.0 | 0.00 | 0.04 | 0.02 | 98 | 1011.3 |
| 20260507120031 | 56 | 304 | 3.0 | 6.0 | 0.00 | 0.04 | 0.02 | 98 | 1011.2 |